[[{"header":{"parameterUnit":"m.s-1","parameterCategory":1,"la1":30.2991,"la2":30.254,"lo1":-89.0895,"lo2":-89.0444,"dy":0.0017,"dx":0.0017,"nx":28,"ny":28,"refTime":"2023-09-19T21:00:00:Z","depth":0,"parameterNumber":2,"parameterNumberName":"U-component_of_WINDS"},"data":[0,0,0,0,0,0,0,0,0,0,0,0,0,0,0,0,0,0,0,0,0,0,0,0,0,0,0,0,0,0,0,0,0,0,0,0,0,0,0,0,0,0,0,0,0,0,0,0,0,0,0,0,0,0,0,0,0,0,-6.15,-6.15,0,-6.147,-6.147,-6.1469,-6.1309,-6.1305,-6.1301,-6.1298,-6.1268,-6.1271,-6.1273,0,0,0,0,0,0,0,0,0,0,0,0,0,-6.1421,-6.1424,-6.15,-6.15,-6.15,-6.147,-6.147,-6.1469,-6.131,-6.1305,-6.13,-6.1296,-6.1267,-6.127,-6.1274,0,0,0,0,0,0,0,0,0,0,0,0,0,-6.143,-6.1424,-6.15,-6.1416,-6.1409,-6.147,-6.147,-6.1469,-6.1311,-6.1305,-6.1299,-6.1294,-6.1266,-6.127,-6.1274,-6.1414,0,0,-6.1287,-6.1288,0,0,0,0,0,0,0,0,-6.143,-6.1433,-6.1429,-6.1422,-6.1414,-6.1387,-6.1431,-6.1451,-6.1312,-6.1348,-6.1298,-6.1291,-6.1312,-6.1312,-6.1319,-6.1413,-6.1412,-6.1287,-6.129,-6.1291,-6.1292,0,0,0,0,0,0,0,-6.1429,-6.1433,-6.1488,-6.1429,-6.142,-6.1381,-6.1376,-6.1434,-6.1363,-6.1344,-6.1333,-6.1331,-6.1307,-6.1316,-6.1317,-6.1411,-6.1287,-6.1291,-6.1293,-6.1295,-6.162,-6.1625,0,0,0,0,0,0,-6.144,-6.1434,-6.1489,-6.1487,-6.1408,-6.1387,-6.1381,-6.1402,-6.1362,-6.135,-6.1336,-6.1324,-6.1311,-6.1313,-6.1316,-6.1477,-6.1291,-6.1295,-6.1298,-6.1613,-6.1621,-6.1628,0,0,0,0,0,0,-6.1439,-6.1447,-6.149,-6.1458,-6.146,-6.1394,-6.1419,-6.1404,-6.1412,-6.1355,-6.1342,-6.1358,-6.1307,-6.131,-6.1391,-6.1474,-6.1297,-6.1301,-6.1606,-6.1616,-6.1624,-6.1803,0,0,0,0,0,0,-6.1438,-6.1447,-6.15,-6.146,-6.1463,-6.1567,-6.1424,-6.1408,-6.142,-6.1404,-6.1372,-6.1362,-6.1303,-6.1386,-6.1395,-6.1477,-6.1304,-6.1598,-6.161,-6.1621,-6.1789,-6.1817,-6.1841,0,0,0,0,0,-6.1435,-6.1551,-6.1503,-6.1511,-6.1526,-6.1572,-6.1573,-6.1502,-6.1427,-6.1479,-6.1443,-6.1363,-6.1464,-6.1396,-6.1405,-6.1489,-6.1593,-6.1607,-6.162,-6.1778,-6.1812,-6.184,0,0,0,0,0,0,-6.1602,-6.1544,-6.149,-6.1596,-6.159,-6.1544,-6.1608,-6.1541,-6.1556,-6.154,-6.1452,-6.1446,-6.1541,-6.1523,-6.1448,-6.1623,-6.1515,-6.1531,-6.1631,-6.1663,-6.1688,-6.169,-6.1307,0,0,0,0,0,-6.1651,-6.1692,-6.164,-6.1739,-6.1738,-6.1675,-6.1691,-6.1638,-6.1628,-6.1624,-6.1593,-6.1587,-6.1617,-6.1639,-6.1664,-6.1786,-6.1777,-6.1849,-6.1875,-6.1896,-6.1911,-6.1975,-6.2006,-6.1673,-6.1673,-6.1673,0,0,-6.1753,-6.1726,-6.1758,-6.1771,-6.176,-6.1805,-6.1673,-6.1726,-6.1759,-6.1632,-6.1707,-6.1685,-6.1672,-6.1775,-6.1818,-6.1763,-6.2002,-6.1914,-6.1931,-6.1934,-6.1993,-6.2024,-6.2052,-6.1682,-6.1681,-6.1679,0,0,-6.1961,-6.1945,-6.2026,-6.2018,-6.2003,-6.196,-6.198,-6.1944,-6.1925,-6.1999,-6.1905,-6.1943,-6.1997,-6.1992,-6.1997,-6.2206,-6.2132,-6.2216,-6.2351,-6.2414,-6.244,-6.2463,-6.2538,-6.2566,-6.2231,-6.2232,-6.2232,0,-6.2089,-6.2153,-6.2076,-6.2136,-6.2145,-6.2033,-6.2114,-6.211,-6.2105,-6.2114,-6.2052,-6.2118,-6.2101,-6.2201,-6.2253,-6.226,-6.228,-6.2219,-6.2443,-6.2465,-6.2485,-6.2555,-6.2584,-6.2242,-6.2241,-6.224,-6.2239,0,-6.2312,-6.2358,-6.2425,-6.2422,-6.2439,-6.251,-6.2444,-6.247,-6.2416,-6.238,-6.2458,-6.2434,-6.2453,-6.2473,-6.242,-6.2566,-6.2532,-6.2458,-6.2347,-6.2529,-6.2593,-6.2619,-6.2257,-6.2253,-6.225,-6.2248,0,0,-6.2622,-6.2577,-6.2603,-6.2601,-6.2577,-6.2611,-6.2678,-6.2695,-6.272,-6.2721,-6.2774,-6.2823,-6.2755,-6.276,-6.2706,-6.2763,-6.293,-6.2681,-6.2679,-6.2728,-6.309,-6.3146,-6.3178,-6.2882,-6.2887,-6.289,-6.3091,0,-6.2821,-6.293,-6.2864,-6.2984,-6.3026,-6.2921,-6.2979,-6.2971,-6.294,-6.2972,-6.2937,-6.2973,-6.288,-6.2883,-6.2934,-6.2899,-6.3001,-6.2884,-6.2931,-6.2934,-6.2937,-6.3212,-6.327,-6.346,-6.3116,-6.312,-6.3123,0,-6.3067,-6.3079,-6.3203,-6.3172,-6.3187,-6.324,-6.3252,-6.3283,-6.3273,-6.3246,-6.3254,-6.3187,-6.325,-6.3142,-6.3228,-6.315,-6.3165,-6.3152,-6.3157,-6.3158,-6.3039,-6.322,-6.3519,-6.3548,-6.3162,-6.3159,-6.3156,0,-6.3281,-6.3328,-6.3408,-6.341,-6.3376,-6.3415,-6.3403,-6.3387,-6.3403,-6.3413,-6.3423,-6.3441,-6.3451,-6.3468,-6.3408,-6.3334,-6.3503,-6.3389,-6.3482,-6.3484,-6.3521,-6.352,-6.3828,-6.3533,-6.3533,-6.3532,-6.3532,0,-6.351,-6.359,-6.3504,-6.3553,-6.364,-6.3564,-6.3653,-6.3629,-6.3616,-6.366,-6.3571,-6.3614,-6.3532,-6.3568,-6.3521,-6.36,-6.3606,-6.3586,-6.3573,-6.3594,-6.3596,-6.3602,-6.3587,-6.354,-6.3538,-6.3537,-6.3536,0,-6.3763,-6.3708,-6.3789,-6.3751,-6.3743,-6.3809,-6.3776,-6.3821,-6.3784,-6.3841,-6.385,-6.3793,-6.383,-6.3772,-6.3802,-6.3771,-6.388,-6.3847,-6.3884,-6.3874,-6.397,-6.3962,-6.4292,-6.4331,-6.4013,-6.4016,-6.4019,0,-6.3912,-6.3971,-6.394,-6.3962,-6.3955,-6.3993,-6.4009,-6.3937,-6.3957,-6.3951,-6.3997,-6.4026,-6.4045,-6.411,-6.4071,-6.4094,-6.406,-6.4174,-6.4063,-6.4083,-6.4062,-6.4059,-6.4064,-6.4197,-6.4201,-6.4204,-6.4206,0,-6.4182,-6.4153,-6.4178,-6.4196,-6.4217,-6.4228,-6.4231,-6.4255,-6.4179,-6.4207,-6.4243,-6.4259,-6.429,-6.4321,-6.4335,-6.4322,-6.4253,-6.4242,-6.4265,-6.4286,-6.4305,-6.4296,-6.3946,-6.4235,-6.4232,-6.423,-6.4228,-6.4227,-6.4387,-6.4435,-6.4421,-6.4453,-6.4449,-6.4455,-6.4495,-6.4464,-6.4493,-6.4513,-6.4469,-6.4517,-6.4506,-6.4517,-6.4513,-6.455,-6.4499,-6.4532,-6.4541,-6.455,-6.4565,-6.4301,-6.4552,-6.4551,-6.455,-6.4549,-6.4549,0,-6.4652,-6.4638,-6.4669,-6.4677,-6.4703,-6.4636,-6.4637,-6.4663,-6.4706,-6.4702,-6.4724,-6.4767,-6.4796,-6.4761,-6.4785,-6.4821,-6.479,-6.483,-6.4826,-6.4824,-6.4608,-6.4586,-6.4855,-6.4855,-6.4855,-6.4855,-6.4854,-6.4854,-6.4793,-6.4871,-6.4841,-6.4916,-6.4902,-6.4948,-6.4954,-6.496,-6.4956,-6.5008,-6.5032,-6.5009,-6.4993,-6.5015,-6.504,-6.5029,-6.5041,-6.5093,-6.5071,-6.4869,-6.4839,-6.4811,-6.4789,-6.5096,-6.5097,-6.5283,-6.5285,-6.5286]},{"header":{"parameterUnit":"m.s-1","parameterCategory":1,"la1":30.2991,"la2":30.254,"lo1":-89.0895,"lo2":-89.0444,"dy":0.0017,"dx":0.0017,"nx":28,"ny":28,"refTime":"2023-09-19T21:00:00:Z","depth":0,"parameterNumber":3,"parameterNumberName":"V-component_of_WINDS"},"data":[0,0,0,0,0,0,0,0,0,0,0,0,0,0,0,0,0,0,0,0,0,0,0,0,0,0,0,0,0,0,0,0,0,0,0,0,0,0,0,0,0,0,0,0,0,0,0,0,0,0,0,0,0,0,0,0,0,0,0.5729,0.5729,0,0.5719,0.5719,0.5719,0.5753,0.5754,0.5755,0.5756,0.5742,0.5741,0.5739,0,0,0,0,0,0,0,0,0,0,0,0,0,0.5775,0.5774,0.5729,0.5729,0.5728,0.5719,0.5719,0.5719,0.5753,0.5754,0.5755,0.5756,0.5742,0.5741,0.5739,0,0,0,0,0,0,0,0,0,0,0,0,0,0.5759,0.5773,0.5729,0.5744,0.5746,0.5719,0.5719,0.5719,0.5752,0.5754,0.5756,0.5757,0.5743,0.5741,0.5739,0.5696,0,0,0.5733,0.5732,0,0,0,0,0,0,0,0,0.576,0.5757,0.5742,0.5743,0.5745,0.5739,0.573,0.5711,0.5752,0.575,0.5756,0.5758,0.5739,0.5738,0.5732,0.5695,0.5694,0.5733,0.5731,0.5731,0.573,0,0,0,0,0,0,0,0.5761,0.5758,0.5725,0.5742,0.5743,0.5751,0.5751,0.5727,0.5736,0.575,0.5753,0.5751,0.574,0.5734,0.5732,0.5694,0.5733,0.5731,0.573,0.5729,0.5623,0.5621,0,0,0,0,0,0,0.576,0.5758,0.5725,0.5724,0.5756,0.5749,0.5749,0.5739,0.5736,0.5737,0.575,0.5753,0.5737,0.5735,0.5732,0.5682,0.5731,0.5729,0.5728,0.5624,0.5622,0.562,0,0,0,0,0,0,0.5761,0.5757,0.5725,0.5742,0.5739,0.5747,0.5736,0.5738,0.5732,0.5736,0.5738,0.5742,0.5738,0.5735,0.5705,0.5682,0.5728,0.5726,0.5626,0.5624,0.5621,0.558,0,0,0,0,0,0,0.5762,0.5757,0.5741,0.5742,0.5738,0.5699,0.5734,0.5737,0.5729,0.5733,0.5729,0.573,0.5739,0.5708,0.5703,0.568,0.5724,0.5628,0.5625,0.5622,0.5584,0.5577,0.5571,0,0,0,0,0,0.5764,0.5728,0.574,0.5735,0.5718,0.5697,0.5695,0.5707,0.5727,0.571,0.5714,0.573,0.5686,0.5705,0.5699,0.5675,0.563,0.5626,0.5622,0.5587,0.5578,0.5571,0,0,0,0,0,0,0.5722,0.5728,0.5741,0.5705,0.5701,0.5703,0.5683,0.5698,0.5687,0.569,0.5705,0.5704,0.5672,0.5671,0.5692,0.5634,0.5661,0.5656,0.5635,0.5627,0.5621,0.5621,0.5723,0,0,0,0,0,0.5709,0.5693,0.5699,0.5666,0.5664,0.5674,0.5665,0.5676,0.5671,0.5669,0.567,0.5664,0.5649,0.5638,0.5625,0.5585,0.5585,0.5566,0.5559,0.5554,0.5549,0.5529,0.5521,0.5608,0.5609,0.5609,0,0,0.5681,0.5682,0.5671,0.5658,0.5656,0.5639,0.5672,0.5651,0.5639,0.5665,0.5638,0.5639,0.5633,0.5599,0.5583,0.5597,0.5525,0.5549,0.5545,0.5543,0.5524,0.5516,0.5509,0.5606,0.5606,0.5607,0,0,0.562,0.562,0.5594,0.5592,0.559,0.5597,0.5591,0.5592,0.5594,0.5567,0.5588,0.5573,0.5546,0.5542,0.5536,0.5479,0.5493,0.5474,0.5439,0.5419,0.5412,0.5406,0.5386,0.5378,0.5469,0.5469,0.5469,0,0.5585,0.5561,0.5578,0.5557,0.5551,0.5578,0.5551,0.5548,0.554,0.5535,0.5551,0.552,0.5518,0.5484,0.547,0.5465,0.5458,0.5473,0.5412,0.5406,0.5401,0.5382,0.5374,0.5467,0.5467,0.5467,0.5468,0,0.5518,0.5501,0.548,0.5474,0.5466,0.5442,0.5456,0.5446,0.5458,0.5463,0.5437,0.5436,0.5423,0.5416,0.5427,0.5384,0.5392,0.541,0.5437,0.539,0.5372,0.5365,0.5463,0.5464,0.5465,0.5466,0,0,0.5427,0.5435,0.5426,0.5425,0.5426,0.5413,0.5391,0.5381,0.5372,0.5367,0.5348,0.5327,0.5345,0.5339,0.5349,0.5332,0.5287,0.5352,0.5353,0.534,0.524,0.5226,0.5217,0.5299,0.5297,0.5296,0.5241,0,0.5368,0.5332,0.5349,0.531,0.5295,0.5322,0.5303,0.5302,0.5307,0.5295,0.5301,0.5286,0.531,0.5307,0.5291,0.5296,0.5267,0.53,0.5281,0.528,0.528,0.5208,0.5192,0.5139,0.5234,0.5233,0.5232,0,0.5293,0.5288,0.5249,0.5255,0.5249,0.5232,0.5225,0.5213,0.5212,0.5218,0.5213,0.5228,0.5207,0.5236,0.5208,0.523,0.5223,0.5225,0.5223,0.522,0.5252,0.5202,0.5123,0.5115,0.5221,0.5222,0.5222,0,0.5231,0.5214,0.5189,0.5187,0.5193,0.518,0.5182,0.5183,0.5177,0.5171,0.5167,0.5158,0.5153,0.5145,0.5158,0.5178,0.5128,0.5158,0.5131,0.5131,0.5118,0.5118,0.5035,0.5116,0.5116,0.5116,0.5116,0,0.5162,0.5137,0.5161,0.5145,0.5118,0.5138,0.5111,0.5115,0.5117,0.5103,0.5125,0.5111,0.513,0.5118,0.5128,0.5103,0.51,0.5104,0.5106,0.5101,0.51,0.5095,0.5099,0.5114,0.5114,0.5115,0.5115,0,0.5087,0.5102,0.5076,0.5086,0.5088,0.5067,0.5075,0.5061,0.507,0.5052,0.5049,0.5062,0.5049,0.5062,0.5049,0.5056,0.5023,0.5031,0.5023,0.5025,0.4998,0.5,0.4908,0.4897,0.4985,0.4984,0.4984,0,0.5041,0.5023,0.5031,0.5025,0.5026,0.5014,0.5008,0.5028,0.5021,0.5021,0.5007,0.4997,0.4989,0.4967,0.4975,0.4966,0.4974,0.4943,0.4972,0.4968,0.4973,0.4973,0.4972,0.4935,0.4934,0.4934,0.4933,0,0.4958,0.4968,0.4959,0.4955,0.4948,0.4945,0.4943,0.4936,0.4956,0.4948,0.4936,0.493,0.4919,0.4908,0.4903,0.4904,0.4921,0.4924,0.4917,0.4911,0.4907,0.4908,0.5006,0.4925,0.4926,0.4927,0.4927,0.4927,0.4896,0.4882,0.4886,0.4877,0.4879,0.4877,0.4865,0.4874,0.4865,0.4859,0.4871,0.4856,0.4858,0.4853,0.4852,0.4841,0.4854,0.4844,0.4842,0.4839,0.4835,0.491,0.484,0.484,0.4841,0.4841,0.4841,0,0.4814,0.4819,0.4811,0.4809,0.4802,0.4823,0.4823,0.4815,0.4802,0.4804,0.4797,0.4784,0.4775,0.4784,0.4776,0.4766,0.4774,0.4763,0.4763,0.4763,0.4823,0.483,0.4757,0.4757,0.4757,0.4757,0.4757,0.4757,0.477,0.4748,0.4758,0.4737,0.4743,0.473,0.4728,0.4727,0.4729,0.4714,0.4707,0.4714,0.4719,0.4712,0.4705,0.4708,0.4703,0.469,0.4695,0.4751,0.4759,0.4767,0.4773,0.4689,0.4689,0.4636,0.4636,0.4635]}]]